Home > Weather > Kalgoorlie > Past weeks

Flag for Australia Past Weather in Kalgoorlie, Western Australia, Australia — Yesterday and Last 2 Weeks

Now
48 °F

Sunny.


Feels Like: 45 °F
Forecast: 38 / 60 °F
Wind: 8 mph from South

Location: Kalgoorlie Boulder Amo

Current Time: Jul 25, 2016 at 10:37:37 AM

Latest Report: Jul 25, 2016 at 10:00 AM


Visibility: 10 mi

Pressure: 30.33 "Hg

Humidity: 71%

Dew Point: 39 °F

Location of KalgoorlieLocation

Past Weather in Kalgoorlie — Graph

°F

Kalgoorlie Temperature Yesterday

Maximum temperature yesterday: 55 °F (at 2:00 PM)
Minimum temperature yesterday: 36 °F (at 5:00 AM)
Average temperature yesterday: 46 °F

High & Low Weather Summary for the Past Weeks

 TemperatureHumidityPressure
High70 °F (Jul 16, 1:30 PM)100% (Jul 12, 5:00 AM)30.54 "Hg (Jul 12, 5:00 AM)
Low30 °F (Jul 23, 6:00 AM)17% (Jul 17, 2:00 AM)29.80 "Hg (Jul 10, 9:00 AM)
Average49 °F67%30.13 "Hg
* Reported Jul 10 9:00 AM — Jul 25 9:00 AM, Kalgoorlie, Weather by CustomWeather, © 2016

Note: Actual official high and low records may vary slightly from our data, if they occured in-between our weather recording intervals... More about our weather records

Advertising

Kalgoorlie Weather History for the Previous 24 Hours

Scroll right to see more
 ConditionsComfort  
Time TempWeatherWind HumidityBarometerVisibility
9:00 AM
Mon, Jul 25
45 °FSunny.5 mph81%30.33 "Hg10 mi
8:30 AM41 °FSunny.5 mph87%30.33 "Hg10 mi
8:00 AM39 °FSunny.1 mph93%30.30 "Hg10 mi
7:30 AM36 °FSunny.5 mph100%30.30 "Hg10 mi
7:00 AM34 °FSunny.6 mph100%30.30 "Hg10 mi
6:30 AM34 °FSunny.6 mph100%30.30 "HgN/A
6:00 AM34 °FSunny.5 mph100%30.27 "HgN/A
5:30 AM36 °FClear.6 mph93%30.27 "HgN/A
5:00 AM34 °FClear.5 mph93%30.27 "HgN/A
4:30 AM34 °FClear.2 mph100%30.27 "HgN/A
4:00 AM36 °FClear.No wind93%30.27 "HgN/A
3:30 AM36 °FClear.3 mph93%30.27 "HgN/A
3:00 AM37 °FClear.9 mph87%30.27 "HgN/A
2:30 AM36 °FClear.1 mph93%30.27 "HgN/A
2:00 AM37 °FClear.No wind93%30.27 "HgN/A
1:00 AM41 °FClear.6 mph81%30.27 "HgN/A
12:00 AM39 °FClear.5 mph87%30.27 "HgN/A
11:30 PM
Sun, Jul 24
39 °FClear.3 mph93%30.27 "HgN/A
11:00 PM41 °FClear.No wind81%30.30 "HgN/A
10:00 PM45 °FClear.No wind76%30.27 "HgN/A
9:00 PM43 °FClear.No wind87%30.27 "HgN/A
8:00 PM46 °FClear.No wind71%30.27 "HgN/A
7:30 PM46 °FClear.No wind71%30.27 "HgN/A
7:00 PM46 °FClear.2 mph71%30.27 "HgN/A
6:30 PM48 °FClear.No wind66%30.24 "HgN/A
6:00 PM50 °FClear.No wind67%30.24 "HgN/A
5:30 PM52 °FClear.3 mph58%30.24 "HgN/A
5:00 PM54 °FClear.5 mph58%30.24 "HgN/A
4:30 PM55 °FClear.3 mph51%30.21 "HgN/A
4:00 PM55 °FSunny.5 mph47%30.21 "HgN/A
3:00 PM55 °FSunny.6 mph47%30.24 "HgN/A
2:30 PM55 °FSunny.6 mph47%30.24 "HgN/A
2:00 PM55 °FSunny.2 mph47%30.24 "HgN/A
1:00 PM54 °FScattered clouds.6 mph54%30.24 "HgN/A
12:30 PM54 °FScattered clouds.6 mph51%30.27 "HgN/A
12:00 PM52 °FScattered clouds.6 mph54%30.27 "HgN/A
11:00 AM50 °FSunny.8 mph62%30.33 "HgN/A
10:00 AM46 °FSunny.7 mph66%30.33 "HgN/A
Weather by CustomWeather, © 2016

See weather overviewHow to use our weather pages